Time,TemperatureF,DewpointF,PressureIn,WindDirection,WindDirectionDegrees,WindSpeedMPH,WindSpeedGustMPH,Humidity,HourlyPrecipIn,Conditions,Clouds,dailyrainin,SoftwareType,DateUTC
2017-05-25 00:10:00,55.6,52.0,29.52,NE,46,4.0,-999.0,87,-99.99,,,0.00,weatherlink.com 1.10,2017-05-25 05:10:00,
2017-05-25 00:25:00,55.6,52.0,29.53,NE,41,6.0,-999.0,86,-99.99,,,0.00,weatherlink.com 1.10,2017-05-25 05:25:00,
2017-05-25 00:40:00,55.7,52.0,29.52,NE,36,2.0,-999.0,86,-99.99,,,0.00,weatherlink.com 1.10,2017-05-25 05:40:00,
2017-05-25 00:55:00,55.7,52.0,29.52,NE,34,2.0,-999.0,86,-99.99,,,0.00,weatherlink.com 1.10,2017-05-25 05:55:00,
2017-05-25 01:10:00,55.7,52.0,29.52,NNW,334,3.0,-999.0,86,-99.99,,,0.00,weatherlink.com 1.10,2017-05-25 06:10:00,
2017-05-25 01:25:00,55.7,52.0,29.52,NE,45,6.0,-999.0,86,-99.99,,,0.00,weatherlink.com 1.10,2017-05-25 06:25:00,
2017-05-25 01:40:00,55.6,52.0,29.52,NE,37,4.0,-999.0,87,-99.99,,,0.00,weatherlink.com 1.10,2017-05-25 06:40:00,
2017-05-25 01:55:00,55.4,52.0,29.51,NE,42,4.0,-999.0,87,-99.99,,,0.00,weatherlink.com 1.10,2017-05-25 06:55:00,
2017-05-25 02:10:00,55.3,52.0,29.51,North,350,1.0,-999.0,88,-99.99,,,0.00,weatherlink.com 1.10,2017-05-25 07:10:00,
2017-05-25 02:25:00,54.8,52.0,29.51,NNE,30,1.0,-999.0,89,-99.99,,,0.00,weatherlink.com 1.10,2017-05-25 07:25:00,
2017-05-25 02:40:00,54.2,51.0,29.51,North,355,4.0,-999.0,90,-99.99,,,0.00,weatherlink.com 1.10,2017-05-25 07:40:00,
2017-05-25 02:55:00,53.9,51.0,29.51,NNW,340,3.0,-999.0,90,-99.99,,,0.00,weatherlink.com 1.10,2017-05-25 07:55:00,
2017-05-25 03:10:00,53.6,51.0,29.51,NNE,19,6.0,-999.0,91,-99.99,,,0.00,weatherlink.com 1.10,2017-05-25 08:10:00,
2017-05-25 03:25:00,53.4,51.0,29.51,NE,40,2.0,-999.0,91,-99.99,,,0.00,weatherlink.com 1.10,2017-05-25 08:25:00,
2017-05-25 03:40:00,53.3,51.0,29.51,North,360,5.0,-999.0,91,-99.99,,,0.00,weatherlink.com 1.10,2017-05-25 08:40:00,
2017-05-25 03:55:00,53.3,51.0,29.52,NNE,22,6.0,-999.0,92,-99.99,,,0.00,weatherlink.com 1.10,2017-05-25 08:55:00,
2017-05-25 04:10:00,53.2,51.0,29.52,NNW,348,4.0,-999.0,92,-99.99,,,0.00,weatherlink.com 1.10,2017-05-25 09:10:00,
2017-05-25 04:25:00,53.1,51.0,29.52,NNW,334,5.0,-999.0,92,-99.99,,,0.00,weatherlink.com 1.10,2017-05-25 09:25:00,
2017-05-25 04:40:00,53.2,51.0,29.53,NE,53,4.0,-999.0,92,-99.99,,,0.00,weatherlink.com 1.10,2017-05-25 09:40:00,
2017-05-25 04:56:00,53.5,51.0,29.52,NNW,327,3.0,-999.0,92,-99.99,,,0.00,weatherlink.com 1.10,2017-05-25 09:56:00,
2017-05-25 05:10:00,53.6,51.0,29.53,North,11,5.0,-999.0,92,-99.99,,,0.00,weatherlink.com 1.10,2017-05-25 10:10:00,
2017-05-25 05:25:00,53.6,51.0,29.54,NNE,25,3.0,-999.0,92,-99.99,,,0.00,weatherlink.com 1.10,2017-05-25 10:25:00,
2017-05-25 05:40:00,53.6,51.0,29.54,NNW,336,4.0,-999.0,92,-99.99,,,0.00,weatherlink.com 1.10,2017-05-25 10:40:00,
2017-05-25 05:55:00,53.6,51.0,29.54,NNW,339,5.0,-999.0,92,-99.99,,,0.00,weatherlink.com 1.10,2017-05-25 10:55:00,
2017-05-25 06:10:00,53.7,52.0,29.54,NNW,345,2.0,-999.0,92,-99.99,,,0.00,weatherlink.com 1.10,2017-05-25 11:10:00,
2017-05-25 06:26:00,53.8,52.0,29.55,North,11,3.0,-999.0,92,-99.99,,,0.00,weatherlink.com 1.10,2017-05-25 11:26:00,
2017-05-25 06:41:00,54.0,52.0,29.55,NW,325,3.0,-999.0,92,-99.99,,,0.00,weatherlink.com 1.10,2017-05-25 11:41:00,
2017-05-25 06:56:00,54.2,52.0,29.56,NE,46,3.0,-999.0,92,-99.99,,,0.00,weatherlink.com 1.10,2017-05-25 11:56:00,
2017-05-25 07:10:00,54.3,52.0,29.57,WNW,296,3.0,-999.0,91,-99.99,,,0.00,weatherlink.com 1.10,2017-05-25 12:10:00,
2017-05-25 07:26:00,54.4,52.0,29.57,NNW,347,10.0,-999.0,91,-99.99,,,0.00,weatherlink.com 1.10,2017-05-25 12:26:00,
2017-05-25 07:41:00,54.4,52.0,29.57,North,9,4.0,-999.0,91,-99.99,,,0.00,weatherlink.com 1.10,2017-05-25 12:41:00,
2017-05-25 07:56:00,54.4,52.0,29.57,NE,49,7.0,-999.0,91,-99.99,,,0.00,weatherlink.com 1.10,2017-05-25 12:56:00,